DW9313 Weather Reports


time (UTC)temp
F
wind
direction
speed
knots
gust
knots
rain 1hr
in
rain 24hr
in
rain mn
in
humidity
%
barometer
mb
20260506171301 54 165 0.0 1.7 0.00 0.00 0.00 76 1013.3
20260506170302 55 305 0.9 2.6 0.00 0.00 0.00 76 1013.2
20260506165802 54 66 0.9 2.6 0.00 0.00 0.00 76 1013.3
20260506165305 55 337 0.0 1.7 0.00 0.00 0.00 76 1013.3
20260506164301 54 44 0.0 1.7 0.00 0.00 0.00 76 1013.4
20260506162301 55 22 0.9 4.3 0.00 0.00 0.00 75 1013.5
20260506161302 55 327 0.9 1.7 0.00 0.00 0.00 75 1013.6
20260506160802 54 307 0.9 4.3 0.00 0.00 0.00 75 1013.7
20260506160302 54 2 0.9 4.3 0.00 0.00 0.00 75 1013.7
20260506155802 54 318 2.6 5.2 0.00 0.00 0.00 75 1013.7
20260506155305 55 319 0.0 5.2 0.00 0.00 0.00 75 1013.8
20260506154801 55 339 0.9 4.3 0.00 0.00 0.00 75 1013.8
20260506154301 55 317 0.9 5.2 0.00 0.00 0.00 75 1013.8
20260506153802 55 285 0.9 4.3 0.00 0.00 0.00 74 1013.8
20260506153302 55 307 0.9 4.3 0.00 0.00 0.00 73 1013.8
20260506152802 56 242 0.9 4.3 0.00 0.00 0.00 73 1013.8
20260506151802 56 308 1.7 5.2 0.00 0.00 0.00 73 1014.0
20260506151301 57 347 0.9 2.6 0.00 0.00 0.00 73 1013.9
20260506150802 57 286 0.9 5.2 0.00 0.00 0.00 74 1013.9
20260506150304 57 339 0.9 4.3 0.00 0.00 0.00 74 1013.9
20260506145803 56 325 1.7 5.2 0.00 0.00 0.00 75 1013.9
20260506145305 56 153 2.6 5.2 0.00 0.00 0.00 74 1013.9
20260506144302 57 136 2.6 6.1 0.00 0.00 0.00 73 1013.9
20260506143803 57 182 0.9 5.2 0.00 0.00 0.00 72 1013.9
20260506143302 57 210 2.6 7.8 0.00 0.00 0.00 73 1013.8
20260506142802 57 233 0.9 1.7 0.00 0.00 0.00 73 1013.9
20260506141802 56 145 0.9 4.3 0.00 0.00 0.00 73 1014.0
20260506141302 55 179 1.7 5.2 0.00 0.00 0.00 74 1014.0
20260506140803 55 141 3.5 6.1 0.00 0.00 0.00 74 1014.0
20260506134803 55 253 0.9 4.3 0.00 0.00 0.00 74 1014.0
20260506134303 55 220 0.9 2.6 0.00 0.00 0.00 74 1014.1
20260506133802 55 217 0.9 2.6 0.00 0.00 0.00 75 1014.0
20260506133303 55 309 1.7 5.2 0.00 0.00 0.00 75 1014.1
20260506132306 55 165 0.9 4.3 0.00 0.00 0.00 76 1014.1
20260506131804 54 224 0.9 2.6 0.00 0.00 0.00 76 1014.1
20260506130804 54 144 0.9 5.2 0.00 0.00 0.00 77 1014.2
20260506130304 54 227 0.9 5.2 0.00 0.00 0.00 77 1014.2
20260506125305 53 174 1.7 5.2 0.00 0.00 0.00 77 1014.3
20260506124804 53 41 0.9 2.6 0.00 0.00 0.00 77 1014.3
20260506124304 53 181 1.7 5.2 0.00 0.00 0.00 76 1014.3
20260506123804 53 162 0.9 4.3 0.00 0.00 0.00 76 1014.2
20260506123303 53 163 0.0 1.7 0.00 0.00 0.00 76 1014.2
20260506122803 53 140 0.9 2.6 0.00 0.00 0.00 76 1014.2
20260506122306 53 349 0.0 0.9 0.00 0.00 0.00 76 1014.2
20260506121803 53 165 0.0 5.2 0.00 0.00 0.00 76 1014.2
20260506121303 53 146 0.0 1.7 0.00 0.00 0.00 75 1014.2
20260506120803 53 180 0.0 1.7 0.00 0.00 0.00 74 1014.3
20260506115804 53 189 0.9 2.6 0.00 0.00 0.00 74 1014.3
20260506115306 53 296 0.0 2.6 0.00 0.00 0.00 74 1014.3
20260506114803 53 179 0.9 4.3 0.00 0.00 0.00 73 1014.3
20260506114303 53 202 0.9 2.6 0.00 0.00 0.00 73 1014.3
20260506113805 53 251 0.0 2.6 0.00 0.00 0.00 75 1014.3
20260506113304 53 310 0.9 4.3 0.00 0.00 0.00 74 1014.2
20260506112804 53 332 1.7 2.6 0.00 0.00 0.00 73 1014.3
20260506112306 54 312 1.7 4.3 0.00 0.00 0.00 72 1014.2
20260506111804 54 309 1.7 5.2 0.00 0.00 0.00 72 1014.2
20260506111304 55 317 0.9 4.3 0.00 0.00 0.00 72 1014.2
20260506110804 55 325 0.9 2.6 0.00 0.00 0.00 72 1014.2
20260506110304 56 305 1.7 4.3 0.00 0.00 0.00 70 1014.2
20260506105805 56 317 0.0 0.9 0.00 0.00 0.00 67 1014.2
20260506105305 56 313 0.0 1.7 0.00 0.00 0.00 67 1014.1
20260506104804 56 337 0.0 1.7 0.00 0.00 0.00 68 1014.1
20260506103804 58 156 0.9 2.6 0.00 0.00 0.00 68 1014.1
20260506103304 58 151 0.9 2.6 0.00 0.00 0.00 69 1014.1
20260506102806 57 150 0.0 2.6 0.00 0.00 0.00 71 1014.1
20260506102305 56 117 0.0 2.6 0.00 0.00 0.00 73 1014.1
20260506101804 55 99 0.0 4.3 0.00 0.00 0.00 72 1014.1
20260506100804 56 90 1.7 5.2 0.00 0.00 0.00 72 1014.3
20260506100305 56 107 1.7 4.3 0.00 0.00 0.00 71 1014.3
20260506095306 56 98 0.9 4.3 0.00 0.00 0.00 72 1014.3
20260506094806 56 75 0.0 2.6 0.00 0.00 0.00 73 1014.3
20260506094305 55 114 0.9 2.6 0.00 0.00 0.00 74 1014.4
20260506093806 54 138 1.7 4.3 0.00 0.00 0.00 75 1014.4
20260506093305 54 141 1.7 4.3 0.00 0.00 0.00 73 1014.4
20260506091805 54 116 0.9 4.3 0.00 0.00 0.00 73 1014.4
20260506091307 54 154 0.0 1.7 0.00 0.00 0.00 73 1014.4
20260506090805 54 183 0.0 0.9 0.00 0.00 0.00 74 1014.4
20260506090305 53 184 0.9 1.7 0.00 0.00 0.00 75 1014.4
20260506085805 53 104 0.9 1.7 0.00 0.00 0.00 74 1014.5
20260506084806 53 271 0.0 0.9 0.00 0.00 0.00 78 1014.6
20260506084305 53 271 0.0 0.9 0.00 0.00 0.00 78 1014.5
20260506083807 52 116 0.0 0.0 0.00 0.00 0.00 79 1014.6
20260506082806 51 14 0.0 0.0 0.00 0.00 0.00 79 1014.6
20260506081807 51 54 0.0 0.9 0.00 0.00 0.00 82 1014.7
20260506081307 51 114 0.0 0.9 0.00 0.00 0.00 82 1014.7
20260506080806 51 115 0.0 0.9 0.00 0.00 0.00 83 1014.7
20260506080305 51 110 0.0 0.0 0.00 0.00 0.00 83 1014.7
20260506073306 49 115 0.0 0.9 0.00 0.00 0.00 87 1014.5
20260506072807 49 297 0.0 0.9 0.00 0.00 0.00 87 1014.5
20260506072306 49 292 0.0 0.9 0.00 0.00 0.00 88 1014.5
20260506071306 48 298 0.0 0.0 0.00 0.00 0.00 89 1014.5
20260506070306 48 312 0.9 1.7 0.00 0.00 0.00 89 1014.4
20260506061807 47 322 0.0 0.9 0.00 0.00 0.00 90 1014.3
20260506060808 47 294 0.0 0.9 0.00 0.00 0.00 90 1014.3
20260506060306 47 296 0.0 0.9 0.00 0.00 0.00 90 1014.2
20260506050807 47 105 0.0 0.0 0.00 0.00 0.00 92 1014.2
20260506050308 47 105 0.0 0.0 0.00 0.00 0.00 92 1014.1
20260506044807 47 105 0.0 0.0 0.00 0.00 0.00 92 1014.1
20260506043307 47 105 0.0 0.0 0.00 0.00 0.00 92 1014.2
20260506042307 47 105 0.0 0.9 0.00 0.00 0.00 93 1014.3
20260506041807 47 105 0.0 0.9 0.00 0.00 0.00 93 1014.2
20260506041308 47 105 0.0 0.9 0.00 0.00 0.00 93 1014.2
20260506040807 47 99 0.0 0.0 0.00 0.00 0.00 93 1014.3
20260506040307 47 99 0.0 0.0 0.00 0.00 0.00 93 1014.3
20260506035309 47 99 0.0 0.0 0.00 0.00 0.00 93 1014.5
20260506034807 47 99 0.0 0.0 0.00 0.00 0.00 93 1014.5
20260506033309 47 99 0.0 0.9 0.00 0.00 0.00 92 1014.5
20260506032808 47 104 0.0 0.9 0.00 0.00 0.00 92 1014.6
20260506032309 47 292 0.0 0.0 0.00 0.00 0.00 92 1014.6
20260506031309 47 292 0.0 0.0 0.00 0.00 0.00 92 1014.6
20260506030808 47 292 0.0 0.0 0.00 0.00 0.00 92 1014.6
20260506030310 47 292 0.0 0.0 0.00 0.00 0.00 92 1014.6
20260506025813 47 292 0.0 0.0 0.00 0.00 0.00 92 1014.6
20260506025332 48 292 0.0 0.0 0.00 0.00 0.00 92 1014.6
20260506023808 48 292 0.0 0.0 0.00 0.00 0.00 92 1014.6
20260506023309 47 292 0.0 0.0 0.00 0.00 0.00 92 1014.7
20260506022809 48 292 0.0 0.0 0.00 0.00 0.00 91 1014.7
20260506022308 48 292 0.0 0.0 0.00 0.00 0.00 91 1014.7
20260506021810 48 292 0.0 0.0 0.00 0.00 0.00 91 1014.7
20260506021308 48 292 0.0 0.0 0.00 0.00 0.00 91 1014.7
20260506020810 48 292 0.0 0.0 0.00 0.00 0.00 91 1014.7
20260506015809 48 292 0.0 0.0 0.00 0.00 0.00 91 1014.7
20260506015309 48 292 0.0 0.0 0.00 0.00 0.00 91 1014.7
20260506013309 48 292 0.0 0.0 0.00 0.00 0.00 91 1014.8
20260506012809 48 294 0.0 0.0 0.00 0.00 0.00 91 1014.9
20260506012309 48 294 0.0 0.0 0.00 0.00 0.00 91 1014.9
20260506011809 48 294 0.0 0.0 0.00 0.00 0.00 91 1015.0
20260506011310 48 294 0.0 0.0 0.00 0.00 0.00 91 1015.0
20260506010809 48 294 0.0 0.9 0.00 0.00 0.00 91 1015.0
20260506010310 48 276 0.0 0.9 0.00 0.00 0.00 90 1015.1
20260506005809 49 275 0.0 0.9 0.00 0.00 0.00 90 1015.1
20260506005309 49 275 0.0 0.9 0.00 0.00 0.00 90 1015.0
20260506004810 49 275 0.0 0.9 0.00 0.00 0.00 90 1015.0
20260506004311 49 275 0.0 0.0 0.00 0.00 0.00 90 1015.0
20260506003815 49 275 0.0 0.0 0.00 0.00 0.00 90 1015.1
20260506003311 49 275 0.0 0.9 0.00 0.00 0.00 90 1015.1
20260506002809 49 273 0.0 0.9 0.00 0.00 0.00 90 1015.1
20260506002311 49 267 0.0 0.9 0.00 0.00 0.00 90 1015.1
20260506001809 49 263 0.0 0.9 0.00 0.00 0.00 90 1015.1
20260506001310 49 266 0.0 0.9 0.00 0.00 0.00 89 1015.1
20260506000809 49 266 0.0 0.9 0.00 0.00 0.00 89 1015.1
20260506000311 49 266 0.0 0.9 0.00 0.00 0.00 89 1015.2
20260505235309 49 275 0.0 0.9 0.00 0.00 0.00 88 1015.1
20260505234809 49 267 0.0 0.9 0.00 0.00 0.00 88 1015.1
20260505233810 49 224 0.0 0.0 0.00 0.00 0.00 87 1015.2
20260505232811 49 224 0.0 0.0 0.00 0.00 0.00 87 1015.3
20260505231311 50 224 0.0 0.0 0.00 0.00 0.00 87 1015.3
20260505230827 50 224 0.0 0.0 0.00 0.00 0.00 87 1015.3
20260505230310 50 224 0.0 0.0 0.00 0.00 0.00 87 1015.5
20260505225311 50 224 0.0 0.0 0.00 0.00 0.00 87 1015.5
20260505224810 50 224 0.0 0.0 0.00 0.00 0.00 86 1015.5
20260505223812 50 224 0.0 0.0 0.00 0.00 0.00 87 1015.6
20260505223311 50 224 0.0 0.9 0.00 0.00 0.00 87 1015.6
20260505222810 50 224 0.0 0.9 0.00 0.00 0.00 87 1015.7
20260505222310 50 140 0.0 0.0 0.00 0.00 0.00 86 1015.7
20260505221810 50 140 0.0 0.0 0.00 0.00 0.00 86 1015.7
20260505221311 50 140 0.0 0.0 0.00 0.00 0.00 86 1015.8
20260505220810 50 140 0.0 0.0 0.00 0.00 0.00 86 1015.7
20260505220312 50 140 0.0 0.0 0.00 0.00 0.00 87 1015.7
20260505215811 50 140 0.0 0.0 0.00 0.00 0.00 87 1015.7
20260505214310 50 127 0.0 0.9 0.00 0.00 0.00 87 1015.7
20260505213812 50 124 0.0 0.9 0.00 0.00 0.00 87 1015.7
20260505213313 50 118 0.0 0.9 0.00 0.00 0.00 88 1015.7
20260505212810 50 118 0.0 0.9 0.00 0.00 0.00 88 1015.7
20260505212311 50 120 0.0 0.9 0.00 0.00 0.00 87 1015.7
20260505211311 50 140 0.0 0.9 0.00 0.00 0.00 87 1015.7
20260505210311 50 137 0.0 0.9 0.00 0.00 0.00 87 1015.7
20260505205311 51 149 0.0 0.0 0.00 0.00 0.00 87 1015.7
20260505204811 51 163 0.0 0.9 0.00 0.00 0.00 86 1015.8
20260505203313 51 142 0.0 0.0 0.00 0.00 0.00 86 1015.7
20260505202812 51 145 0.0 0.9 0.00 0.00 0.00 86 1015.7
20260505202316 51 144 0.0 0.9 0.00 0.00 0.00 86 1015.7
20260505201811 51 143 0.0 0.0 0.00 0.00 0.00 86 1015.8
20260505201311 51 144 0.0 0.9 0.00 0.00 0.00 86 1015.8
20260505200811 51 126 0.0 0.9 0.00 0.00 0.00 86 1015.8
20260505200311 51 129 0.0 1.7 0.00 0.00 0.00 86 1015.8
20260505195811 51 149 0.0 1.7 0.00 0.00 0.00 86 1015.7
20260505195312 51 124 0.9 1.7 0.00 0.00 0.00 85 1015.7
20260505194811 51 144 0.0 0.9 0.00 0.00 0.00 85 1015.6
20260505194312 51 201 0.0 1.7 0.00 0.00 0.00 85 1015.6
20260505193813 51 161 0.0 1.7 0.00 0.00 0.00 85 1015.5
20260505193311 51 150 0.0 1.7 0.00 0.00 0.00 85 1015.5
20260505192812 51 129 0.0 0.9 0.00 0.00 0.00 85 1015.5
20260505192311 52 174 0.0 0.9 0.00 0.00 0.00 85 1015.6
20260505191812 52 150 0.0 0.9 0.00 0.00 0.00 85 1015.6
20260505191312 51 165 0.0 0.9 0.00 0.00 0.00 84 1015.6
20260505190312 52 132 0.0 0.9 0.00 0.00 0.00 84 1015.5
20260505185812 52 129 0.0 0.9 0.00 0.00 0.00 85 1015.5
20260505185312 52 132 0.0 0.9 0.00 0.00 0.00 84 1015.4
20260505184812 52 156 0.0 0.9 0.00 0.00 0.00 85 1015.5
20260505184312 52 145 0.0 0.9 0.00 0.00 0.00 84 1015.5
20260505183814 52 143 0.9 2.6 0.00 0.00 0.00 84 1015.4
20260505183313 52 160 0.0 1.7 0.00 0.00 0.00 84 1015.4
20260505182813 52 6 0.0 0.0 0.00 0.00 0.00 84 1015.4
20260505182312 52 131 0.0 0.9 0.00 0.00 0.00 84 1015.4
20260505181312 52 200 0.9 2.6 0.00 0.00 0.00 84 1015.3
20260505180813 52 156 1.7 5.2 0.00 0.00 0.00 84 1015.3
20260505180312 52 165 2.6 5.2 0.00 0.00 0.00 84 1015.4
20260505175812 52 143 0.9 4.3 0.00 0.00 0.00 84 1015.4
20260505175312 52 153 1.7 4.3 0.00 0.00 0.00 84 1015.5
20260505174812 52 143 1.7 5.2 0.00 0.00 0.00 83 1015.5
20260505174313 53 141 0.9 2.6 0.00 0.00 0.00 82 1015.5
20260505173814 53 110 1.7 4.3 0.00 0.00 0.00 80 1015.5
20260505172813 54 99 0.9 4.3 0.00 0.01 0.00 76 1015.6
20260505172313 54 114 0.0 0.9 0.00 0.01 0.00 76 1015.6
20260505171814 54 110 0.0 1.7 0.00 0.01 0.00 76 1015.5